Weather History for KMZG - February, 2013

Change the Weather History Date:

Saturday, February 23, 2013

  Actual Average Record
Temperature  
Mean Temperature 62 °F -  
Max Temperature 66 °F - - ()
Min Temperature 59 °F - - ()
Degree Days  
Heating Degree Days 2    
Growing Degree Days 12 (Base 50)    
Moisture  
Dew Point 55 °F    
Average Humidity 76    
Maximum Humidity 82    
Minimum Humidity 64    
Precipitation  
Precipitation 0.00 in - - ()
Sea Level Pressure  
Sea Level Pressure 29.92 in    
Wind  
Wind Speed 18 mph ()    
Max Wind Speed 30 mph    
Max Gust Speed 31 mph    
Visibility 9.3 miles    
Events      
Averages and records for this station are not official NWS values.
T = Trace of Precipitation, MM = Missing Value Source: Averaged Metar Reports

Daily Weather History Graph

Daily Weather History Graph

Search for Another Location

Airport or City:

Trip Planner

Search our weather history database for the weather conditions in past years. The results will help you decide how hot, cold, wet, or windy it might be!

Date:

Astronomy

Feb. 23, 2013 Rise Set
Actual Time 6:54 AM CST 6:21 PM CST
Civil Twilight 6:31 AM CST 6:45 PM CST
Nautical Twilight 6:03 AM CST 7:12 PM CST
Astronomical Twilight 5:36 AM CST 7:39 PM CST
Moon 4:38 PM CST (2/23) 5:11 AM CST (2/23)
Length of Visible Light 12h 14m
Length of Day
11h 26m
Waxing Gibbous, 95% of the Moon is Illuminated
Feb 23
Waxing Gibbous
Feb 25
Full
Mar 4
Last Quarter
Mar 11
New
Mar 19
First Quarter

Hourly Weather History & Observations

Time (CST) Temp. Dew Point Humidity Pressure Visibility Wind Dir Wind Speed Gust Speed Precip Events Conditions
12:15 AM 64.4 °F 57.2 °F 77% 29.88 in 8.0 mi NNE 29.9 mph - N/A   Unknown
12:35 AM 64.4 °F 57.2 °F 77% 29.89 in 9.0 mi NNE 28.8 mph - N/A   Unknown
12:55 AM 64.4 °F 57.2 °F 77% 29.89 in 9.0 mi NNE 27.6 mph - N/A   Unknown
1:15 AM 64.4 °F 57.2 °F 77% 29.90 in 10.0 mi NNE 27.6 mph - N/A   Unknown
1:35 AM 62.6 °F 57.2 °F 82% 29.89 in 9.0 mi NNE 25.3 mph 31.1 mph N/A   Unknown
1:55 AM 62.6 °F 57.2 °F 82% 29.89 in 10.0 mi NNE 25.3 mph - N/A   Unknown
2:15 AM 62.6 °F 57.2 °F 82% 29.89 in 10.0 mi NNE 25.3 mph - N/A   Unknown
2:35 AM 62.6 °F 55.4 °F 77% 29.90 in 9.0 mi NNE 23.0 mph 31.1 mph N/A   Unknown
2:55 AM 62.6 °F 55.4 °F 77% 29.89 in 8.0 mi NNE 26.5 mph - N/A   Unknown
3:15 AM 62.6 °F 55.4 °F 77% 29.90 in 9.0 mi North 24.2 mph - N/A   Unknown
3:35 AM 60.8 °F 55.4 °F 82% 29.90 in 9.0 mi NNE 24.2 mph - N/A   Unknown
3:55 AM 60.8 °F 55.4 °F 82% 29.90 in 9.0 mi NNE 24.2 mph - N/A   Unknown
4:15 AM 60.8 °F 55.4 °F 82% 29.91 in 9.0 mi NNE 25.3 mph - N/A   Unknown
4:35 AM 60.8 °F 53.6 °F 77% 29.91 in 9.0 mi NNE 25.3 mph - N/A   Unknown
4:55 AM 60.8 °F 53.6 °F 77% 29.91 in 9.0 mi North 23.0 mph - N/A   Unknown
5:15 AM 59.0 °F 53.6 °F 82% 29.91 in 9.0 mi NNE 24.2 mph - N/A   Unknown
5:35 AM 60.8 °F 53.6 °F 77% 29.89 in 9.0 mi NNE 24.2 mph - N/A   Unknown
5:55 AM 60.8 °F 53.6 °F 77% 29.90 in 9.0 mi NNE 18.4 mph 29.9 mph N/A   Unknown
6:15 AM 60.8 °F 55.4 °F 82% 29.91 in 10.0 mi NNE 23.0 mph - N/A   Unknown
6:35 AM 60.8 °F 55.4 °F 82% 29.91 in 10.0 mi NNE 23.0 mph - N/A   Unknown
6:55 AM 60.8 °F 55.4 °F 82% 29.92 in 10.0 mi NNE 23.0 mph - N/A   Unknown
7:15 AM 62.6 °F 55.4 °F 77% 29.92 in 9.0 mi NE 15.0 mph 25.3 mph N/A   Unknown
7:35 AM 60.8 °F 55.4 °F 82% 29.94 in 9.0 mi NNE 19.6 mph - N/A   Mostly Cloudy
7:55 AM 60.8 °F 55.4 °F 82% 29.93 in 9.0 mi NNE 25.3 mph - N/A   Overcast
8:15 AM 60.8 °F 55.4 °F 82% 29.93 in 8.0 mi NNE 21.9 mph 28.8 mph N/A   Mostly Cloudy
8:55 AM 60.8 °F 55.4 °F 82% 29.94 in 9.0 mi NNE 24.2 mph - N/A   Mostly Cloudy
9:15 AM 60.8 °F 55.4 °F 82% 29.94 in 7.0 mi North 24.2 mph - N/A   Partly Cloudy
9:35 AM 60.8 °F 55.4 °F 82% 29.94 in 8.0 mi North 24.2 mph - N/A   Scattered Clouds
9:55 AM 60.8 °F 55.4 °F 82% 29.93 in 7.0 mi North 24.2 mph - N/A   Partly Cloudy
10:15 AM 60.8 °F 55.4 °F 82% 29.96 in 9.0 mi NNE 16.1 mph - N/A   Clear
10:35 AM 60.8 °F 53.6 °F 77% 29.98 in 9.0 mi North 13.8 mph - N/A   Mostly Cloudy
10:55 AM 60.8 °F 55.4 °F 82% 29.99 in 9.0 mi NNE 13.8 mph - N/A   Overcast
11:15 AM 60.8 °F 55.4 °F 82% 29.99 in 9.0 mi NNE 12.7 mph - N/A   Overcast
11:35 AM 60.8 °F 55.4 °F 82% 29.99 in 8.0 mi North 11.5 mph - N/A   Overcast
11:55 AM 60.8 °F 53.6 °F 77% 29.99 in 9.0 mi North 12.7 mph - N/A   Overcast
12:15 PM 59.0 °F 53.6 °F 82% 29.99 in 9.0 mi North 13.8 mph - N/A   Overcast
12:35 PM 59.0 °F 53.6 °F 82% 29.98 in 9.0 mi NNW 16.1 mph - N/A   Overcast
12:55 PM 59.0 °F 53.6 °F 82% 29.97 in 9.0 mi NNW 13.8 mph - N/A   Overcast
1:15 PM 59.0 °F 53.6 °F 82% 29.97 in 9.0 mi North 12.7 mph 20.7 mph N/A   Overcast
1:35 PM 59.0 °F 51.8 °F 77% 29.95 in 9.0 mi North 11.5 mph - N/A   Overcast
1:55 PM 59.0 °F 51.8 °F 77% 29.94 in 10.0 mi North 10.4 mph - N/A   Overcast
2:15 PM 59.0 °F 53.6 °F 82% 29.93 in 9.0 mi North 10.4 mph - N/A   Partly Cloudy
2:35 PM 60.8 °F 53.6 °F 77% 29.93 in 10.0 mi North 10.4 mph - N/A   Clear
2:55 PM 60.8 °F 53.6 °F 77% 29.92 in 10.0 mi NNE 8.1 mph - N/A   Clear
3:15 PM 60.8 °F 53.6 °F 77% 29.91 in 10.0 mi Variable 5.8 mph - N/A   Clear
3:35 PM 60.8 °F 53.6 °F 77% 29.91 in 10.0 mi North 9.2 mph - N/A   Clear
3:55 PM 62.6 °F 53.6 °F 72% 29.91 in 10.0 mi NNE 5.8 mph - N/A   Clear
4:15 PM 62.6 °F 53.6 °F 72% 29.90 in 9.0 mi North 9.2 mph - N/A   Clear
4:35 PM 62.6 °F 53.6 °F 72% 29.90 in 10.0 mi NNE 11.5 mph - N/A   Clear
4:55 PM 62.6 °F 53.6 °F 72% 29.89 in 10.0 mi NNE 9.2 mph - N/A   Clear
5:15 PM 62.6 °F 53.6 °F 72% 29.89 in 10.0 mi NNE 12.7 mph - N/A   Clear
5:35 PM 62.6 °F 53.6 °F 72% 29.88 in 10.0 mi NNE 10.4 mph - N/A   Clear
5:55 PM 62.6 °F 53.6 °F 72% 29.89 in 10.0 mi North 12.7 mph - N/A   Clear
6:15 PM 62.6 °F 53.6 °F 72% 29.89 in 10.0 mi North 12.7 mph - N/A   Clear
6:35 PM 62.6 °F 53.6 °F 72% 29.90 in 10.0 mi North 12.7 mph - N/A   Unknown
6:55 PM 64.4 °F 53.6 °F 68% 29.90 in 10.0 mi Variable 6.9 mph 15.0 mph N/A   Unknown
7:15 PM 66.2 °F 53.6 °F 64% 29.90 in 10.0 mi NNE 8.1 mph - N/A   Unknown
7:35 PM 66.2 °F 53.6 °F 64% 29.91 in 10.0 mi NNE 8.1 mph - N/A   Unknown
7:55 PM 64.4 °F 53.6 °F 68% 29.92 in 10.0 mi NNE 9.2 mph - N/A   Unknown
8:15 PM 66.2 °F 53.6 °F 64% 29.92 in 10.0 mi NNE 9.2 mph - N/A   Unknown
8:35 PM 64.4 °F 53.6 °F 68% 29.93 in 10.0 mi Variable 5.8 mph - N/A   Unknown
8:55 PM 66.2 °F 53.6 °F 64% 29.93 in 10.0 mi Variable 4.6 mph 12.7 mph N/A   Unknown
9:15 PM 66.2 °F 53.6 °F 64% 29.93 in 10.0 mi Variable 6.9 mph - N/A   Unknown
9:35 PM 66.2 °F 53.6 °F 64% 29.94 in 10.0 mi NE 9.2 mph - N/A   Unknown
9:55 PM 66.2 °F 55.4 °F 68% 29.94 in - Variable 8.1 mph - N/A   Unknown
10:15 PM 66.2 °F 55.4 °F 68% 29.94 in 10.0 mi Variable 5.8 mph 11.5 mph N/A   Unknown
10:35 PM 66.2 °F 55.4 °F 68% 29.93 in 10.0 mi Variable 6.9 mph - N/A   Unknown
10:55 PM 66.2 °F 55.4 °F 68% 29.93 in 10.0 mi NE 10.4 mph - N/A   Unknown
11:15 PM 66.2 °F 57.2 °F 73% 29.92 in 9.0 mi Variable 6.9 mph 12.7 mph N/A   Unknown
11:35 PM 66.2 °F 57.2 °F 73% 29.91 in 9.0 mi ENE 8.1 mph 13.8 mph N/A   Unknown
11:55 PM 66.2 °F 57.2 °F 73% 29.91 in 8.0 mi Variable 5.8 mph 15.0 mph N/A   Unknown